Location: Hopkins Observatory
(42.6965°N, 73.1843°W)
Time: 21:19:40
(UTC-05:00)

UOSAT-12 - Visible Passes

Search period start: 25 January 2015 00:00
Search period end: 04 February 2015 00:00
Orbit: 594 x 662 km, 64.6° (Epoch: 25 January)

Date Brightness Start Highest point End Pass type
(mag) Time Alt. Az. Time Alt. Az. Time Alt. Az.
27 Jan 9.8 19:36:10 10° N 19:36:18 11° N 19:36:18 11° N visible
28 Jan 9.8 19:56:00 10° NNW 19:56:20 12° NNW 19:56:20 12° NNW visible
29 Jan 9.1 18:37:13 10° N 18:39:04 14° NNE 18:39:04 14° NNE visible
29 Jan 10.0 20:16:07 10° NNW 20:16:25 12° NNW 20:16:25 12° NNW visible
30 Jan 8.7 18:56:46 10° NNW 18:59:15 21° NNE 18:59:15 21° NNE visible
30 Jan 10.2 20:36:31 10° NW 20:36:35 10° NW 20:36:35 10° NW visible
31 Jan 9.3 17:39:08 10° NNE 17:39:48 10° NNE 17:40:38 10° NE visible
31 Jan 8.3 19:16:41 10° NNW 19:19:31 32° N 19:19:31 32° N visible
01 Feb 8.8 17:57:43 10° N 18:00:43 17° NE 18:02:34 14° ENE visible
01 Feb 8.2 19:36:51 10° NW 19:39:57 41° NW 19:39:57 41° NW visible
02 Feb 8.1 18:17:24 10° NNW 18:21:28 28° NE 18:23:10 23° E visible
02 Feb 8.7 19:57:21 10° NW 20:00:33 34° W 20:00:33 34° W visible
03 Feb 7.2 18:37:22 10° NNW 18:41:59 54° NE 18:44:00 30° ESE visible
03 Feb 9.6 20:18:28 10° WNW 20:21:25 19° WSW 20:21:25 19° WSW visible
